When you browse on this site, cookies collect data to enhance your experience and personalize the content and advertising you see.
Visit our Privacy Policy to learn more. By continuing to use the site, you agree to this use of cookies and data.
EN

Hourly Weather Suvorovo

Today, 18 September, Friday

Time Temperature Precipitation Wind Pressure Humidity
00:00 +14°C° 0 mm 5 mps 754 mmHg 45%
01:00 +14°C° 0 mm 5 mps 753 mmHg 46%
02:00 +13°C° 0 mm 5 mps 753 mmHg 46%
03:00 +13°C° 0 mm 5 mps 752 mmHg 46%
04:00 +13°C° 0 mm 5 mps 752 mmHg 46%
05:00 +12°C° 0 mm 5 mps 751 mmHg 45%
06:00 +11°C° 0 mm 6 mps 751 mmHg 45%
07:00 +14°C° 0 mm 7 mps 751 mmHg 42%
08:00 +16°C° 0 mm 7 mps 750 mmHg 38%
09:00 +17°C° 0 mm 8 mps 750 mmHg 34%
10:00 +18°C° 0 mm 8 mps 750 mmHg 32%
11:00 +21°C° 0 mm 9 mps 750 mmHg 30%
12:00 +22°C° 0 mm 9 mps 749 mmHg 28%
13:00 +22°C° 0 mm 9 mps 748 mmHg 30%
14:00 +22°C° 0 mm 9 mps 748 mmHg 31%
15:00 +23°C° 0 mm 9 mps 747 mmHg 33%
16:00 +22°C° 0 mm 8 mps 747 mmHg 38%
17:00 +21°C° 0 mm 7 mps 746 mmHg 42%
18:00 +21°C° 0 mm 6 mps 746 mmHg 46%
19:00 +17°C° 0.6 mm 6 mps 746 mmHg 58%
20:00 +15°C° 0.6 mm 6 mps 745 mmHg 69%
21:00 +13°C° 0.6 mm 6 mps 745 mmHg 80%
22:00 +12°C° 0.9 mm 5 mps 745 mmHg 81%
23:00 +12°C° 0.9 mm 5 mps 745 mmHg 83%

Tomorrow, 19 September, Saturday

Time Temperature Precipitation Wind Pressure Humidity
00:00 +12°C° 0.9 mm 4 mps 744 mmHg 84%
01:00 +12°C° 0 mm 4 mps 744 mmHg 83%
02:00 +11°C° 0 mm 4 mps 744 mmHg 81%
03:00 +11°C° 0 mm 4 mps 744 mmHg 80%
04:00 +10°C° 0 mm 4 mps 744 mmHg 80%
05:00 +10°C° 0 mm 4 mps 744 mmHg 80%
06:00 +8°C° 0 mm 5 mps 744 mmHg 80%
07:00 +9°C° 0 mm 6 mps 745 mmHg 75%
08:00 +10°C° 0 mm 6 mps 745 mmHg 70%
09:00 +11°C° 0 mm 7 mps 745 mmHg 64%
10:00 +12°C° 0 mm 7 mps 745 mmHg 59%
11:00 +13°C° 0 mm 8 mps 745 mmHg 54%
12:00 +16°C° 0 mm 8 mps 745 mmHg 49%
13:00 +15°C° 0 mm 8 mps 745 mmHg 51%
14:00 +15°C° 0 mm 9 mps 745 mmHg 53%
15:00 +15°C° 0 mm 9 mps 745 mmHg 55%
16:00 +13°C° 0.1 mm 9 mps 745 mmHg 60%
17:00 +12°C° 0.1 mm 9 mps 746 mmHg 65%
18:00 +11°C° 0.1 mm 9 mps 747 mmHg 71%
19:00 +10°C° 0 mm 8 mps 747 mmHg 70%
20:00 +9°C° 0 mm 8 mps 747 mmHg 70%
21:00 +9°C° 0 mm 8 mps 748 mmHg 70%
22:00 +9°C° 0 mm 7 mps 748 mmHg 70%
23:00 +9°C° 0 mm 7 mps 748 mmHg 71%

Day after tomorrow, 20 September, Sunday

Time Temperature Precipitation Wind Pressure Humidity
00:00 +9°C° 0 mm 6 mps 748 mmHg 72%
01:00 +9°C° 0 mm 6 mps 748 mmHg 75%
02:00 +8°C° 0 mm 6 mps 748 mmHg 78%
03:00 +8°C° 0 mm 6 mps 748 mmHg 82%
04:00 +8°C° 0 mm 6 mps 748 mmHg 85%
05:00 +7°C° 0 mm 6 mps 748 mmHg 88%
06:00 +6°C° 0 mm 5 mps 748 mmHg 91%
07:00 +8°C° 0 mm 6 mps 748 mmHg 81%
08:00 +10°C° 0 mm 6 mps 748 mmHg 71%
09:00 +11°C° 0 mm 7 mps 749 mmHg 61%
10:00 +12°C° 0.2 mm 7 mps 749 mmHg 56%
11:00 +13°C° 0.2 mm 8 mps 749 mmHg 51%
12:00 +15°C° 0.2 mm 9 mps 749 mmHg 46%
13:00 +13°C° 0 mm 9 mps 749 mmHg 45%
14:00 +13°C° 0 mm 9 mps 750 mmHg 44%
15:00 +13°C° 0 mm 9 mps 750 mmHg 42%
16:00 +12°C° 0 mm 8 mps 751 mmHg 47%
17:00 +10°C° 0 mm 8 mps 751 mmHg 52%
18:00 +9°C° 0 mm 7 mps 752 mmHg 57%
19:00 +8°C° 0 mm 6 mps 753 mmHg 59%
20:00 +7°C° 0 mm 6 mps 753 mmHg 61%
21:00 +7°C° 0 mm 5 mps 754 mmHg 63%
22:00 +6°C° 0 mm 4 mps 754 mmHg 65%
23:00 +6°C° 0 mm 4 mps 755 mmHg 66%

21 September, Monday

Time Temperature Precipitation Wind Pressure Humidity
00:00 +5°C° 0 mm 4 mps 755 mmHg 68%
01:00 +5°C° 0 mm 4 mps 755 mmHg 69%
02:00 +5°C° 0 mm 4 mps 755 mmHg 71%
03:00 +5°C° 0 mm 4 mps 756 mmHg 72%
04:00 +5°C° 0 mm 4 mps 756 mmHg 74%
05:00 +4°C° 0 mm 4 mps 756 mmHg 76%
06:00 +4°C° 0 mm 4 mps 756 mmHg 78%
07:00 +6°C° 0 mm 4 mps 756 mmHg 70%
08:00 +8°C° 0 mm 5 mps 756 mmHg 61%
09:00 +10°C° 0 mm 6 mps 756 mmHg 53%
10:00 +11°C° 0 mm 6 mps 756 mmHg 50%
11:00 +13°C° 0 mm 6 mps 756 mmHg 46%
12:00 +14°C° 0 mm 6 mps 756 mmHg 43%
13:00 +15°C° 0 mm 6 mps 755 mmHg 43%
14:00 +15°C° 0 mm 7 mps 755 mmHg 42%
15:00 +15°C° 0 mm 7 mps 755 mmHg 41%
16:00 +15°C° 0 mm 6 mps 755 mmHg 44%
17:00 +14°C° 0 mm 5 mps 754 mmHg 47%
18:00 +13°C° 0 mm 4 mps 754 mmHg 50%
19:00 +12°C° 0 mm 4 mps 754 mmHg 53%
20:00 +11°C° 0 mm 4 mps 754 mmHg 56%
21:00 +11°C° 0 mm 4 mps 755 mmHg 59%
22:00 +10°C° 0 mm 4 mps 755 mmHg 60%
23:00 +9°C° 0 mm 5 mps 755 mmHg 62%

22 September, Tuesday

Time Temperature Precipitation Wind Pressure Humidity
00:00 +9°C° 0 mm 5 mps 755 mmHg 63%
01:00 +9°C° 0 mm 5 mps 754 mmHg 65%
02:00 +8°C° 0 mm 5 mps 754 mmHg 67%
03:00 +8°C° 0 mm 4 mps 754 mmHg 69%
04:00 +8°C° 0 mm 4 mps 754 mmHg 72%
05:00 +8°C° 0 mm 4 mps 755 mmHg 74%
06:00 +7°C° 0 mm 4 mps 755 mmHg 77%
07:00 +10°C° 0 mm 4 mps 755 mmHg 73%
08:00 +12°C° 0 mm 4 mps 756 mmHg 69%
09:00 +13°C° 0 mm 4 mps 756 mmHg 65%
10:00 +14°C° 0 mm 4 mps 756 mmHg 60%
11:00 +17°C° 0 mm 4 mps 756 mmHg 54%
12:00 +18°C° 0 mm 4 mps 757 mmHg 49%
13:00 +19°C° 0 mm 4 mps 757 mmHg 46%
14:00 +19°C° 0 mm 3 mps 757 mmHg 44%
15:00 +19°C° 0 mm 3 mps 757 mmHg 42%
16:00 +18°C° 0 mm 3 mps 757 mmHg 44%
17:00 +17°C° 0 mm 2 mps 757 mmHg 47%
18:00 +15°C° 0 mm 2 mps 757 mmHg 50%
19:00 +15°C° 0 mm 1 mps 758 mmHg 51%
20:00 +14°C° 0 mm 1 mps 758 mmHg 52%
21:00 +13°C° 0 mm 1 mps 758 mmHg 54%
22:00 +12°C° 0 mm 0 mps 759 mmHg 55%
23:00 +12°C° 0 mm 0 mps 759 mmHg 56%

23 September, Wednesday

Time Temperature Precipitation Wind Pressure Humidity
00:00 +11°C° 0 mm 0 mps 759 mmHg 57%
01:00 +11°C° 0 mm 0 mps 759 mmHg 58%
02:00 +11°C° 0 mm 0 mps 759 mmHg 58%
03:00 +11°C° 0 mm 1 mps 759 mmHg 59%
04:00 +11°C° 0 mm 1 mps 760 mmHg 60%
05:00 +11°C° 0 mm 1 mps 760 mmHg 60%
06:00 +11°C° 0 mm 1 mps 760 mmHg 61%
07:00 +13°C° 0 mm 1 mps 760 mmHg 55%
08:00 +15°C° 0 mm 2 mps 760 mmHg 50%
09:00 +17°C° 0 mm 2 mps 761 mmHg 44%
10:00 +18°C° 0 mm 2 mps 761 mmHg 41%
11:00 +19°C° 0 mm 3 mps 760 mmHg 38%
12:00 +20°C° 0 mm 3 mps 760 mmHg 36%
13:00 +20°C° 0 mm 3 mps 760 mmHg 34%
14:00 +21°C° 0 mm 3 mps 760 mmHg 33%
15:00 +21°C° 0 mm 3 mps 760 mmHg 32%
16:00 +20°C° 0 mm 3 mps 759 mmHg 35%
17:00 +18°C° 0 mm 3 mps 759 mmHg 37%
18:00 +17°C° 0 mm 3 mps 759 mmHg 40%
19:00 +16°C° 0 mm 3 mps 759 mmHg 40%
20:00 +16°C° 0 mm 3 mps 759 mmHg 40%
21:00 +14°C° 0 mm 3 mps 760 mmHg 39%
22:00 +13°C° 0 mm 3 mps 760 mmHg 40%
23:00 +14°C° 0 mm 2 mps 760 mmHg 40%
Show more